GLOBALSTAR M088

Last updated on Sun Jun 21 2026 00:03:18 GMT+0000 (Coordinated Universal Time)

1 37740U 11033B 26171.27017734 -.00000085 00000+0 10469-3 0 9993 2 37740 52.0214 269.5692 0000642 132.0435 255.6304 12.62268842688880
UTC large
Height (km)
Speed (km/s)
/
Latitude / Longitude
Inclination (degrees)
Orbital Period (minutes)
Azimuth
Elevation
Range (km)
Doppler Factor

Next 0 passes for location: London (51.5072 / 0.1276)

No passes found over London.
GLOBALSTAR M088